Theta_e
291 291 292 292 292 293 293 293 293 293 294 293 292 293 293 293 293 293 292 291 292 288 290 292 292 292 292 292 289 291 292 294 295 292 297 299 299 299 299 299 300 301 302 303 305 307 309 307 307 308 307 306 307 307
296 295 295 294 293 292 292 292 293 293 292 292 292 292 293 292 293 293 293 292 292 293 291 293 293 293 293 293 293 291 292 293 292 293 294 297 300 296 297 300 300 302 302 300 304 308 308 308 308 306 305 305 306 305
292 292 293 293 294 295 294 294 293 293 293 292 292 292 293 292 293 293 293 292 293 289 289 290 290 292 292 292 293 293 291 293 295 295 294 293 294 295 297 295 299 298 299 302 301 306 305 305 306 305 305 304 304 304
294 294 294 294 294 294 293 293 295 294 293 293 293 292 293 293 293 293 293 293 293 290 290 289 291 291 293 293 292 293 293 293 294 293 292 294 296 295 295 297 298 298 299 301 304 303 306 306 305 304 303 302 303 302
294 294 294 294 294 294 294 294 293 294 294 293 293 293 292 292 293 293 293 293 292 290 284 288 290 291 292 291 291 292 292 292 291 293 295 295 295 297 297 298 299 299 303 305 305 303 304 303 302 302 303 302 303 303
293 294 295 294 294 295 295 295 295 293 294 294 292 293 291 291 292 293 287 291 292 293 293 291 290 292 293 293 292 292 291 291 293 293 294 296 296 298 299 300 299 299 300 303 300 300 302 302 301 301 300 300 300 299
293 294 294 294 294 295 295 295 294 293 294 294 292 291 292 292 292 290 288 292 293 293 291 291 291 291 294 295 291 290 292 291 292 293 294 296 296 298 298 299 299 299 299 299 299 303 303 303 303 303 303 301 299 299
293 294 294 294 294 294 294 294 293 293 294 292 290 292 291 292 292 292 289 291 291 292 291 291 292 291 294 296 296 295 294 294 296 297 299 297 299 299 300 299 299 302 303 304 304 303 303 304 303 303 302 299 300 299
292 293 293 294 294 294 294 293 293 292 290 291 292 292 292 292 291 291 291 291 291 292 289 290 293 290 294 294 295 296 297 298 296 297 297 297 295 298 300 301 303 302 302 302 302 303 304 303 304 304 302 300 300 299
292 292 292 292 292 292 291 291 292 292 291 291 290 291 281 292 291 293 291 290 293 293 294 292 291 293 293 293 294 293 295 299 300 299 299 299 300 300 301 303 302 302 302 302 302 302 303 304 304 304 303 302 302 301
292 291 290 290 290 291 290 290 290 290 291 292 290 286 292 294 293 291 292 292 290 291 291 293 293 293 293 295 296 294 295 300 303 303 303 301 303 304 301 301 299 299 299 298 300 300 299 301 301 303 301 299 297 296
292 291 291 290 290 289 290 291 291 293 293 293 293 293 294 293 291 294 292 293 294 295 295 295 296 295 295 296 296 296 300 294 298 299 300 302 301 301 300 300 299 298 296 297 298 296 296 298 299 300 298 296 294 292
291 291 292 291 291 291 291 293 293 293 294 294 294 294 292 287 293 295 292 296 297 297 297 298 298 299 298 298 297 300 296 294 295 292 296 301 301 299 298 297 296 295 294 294 296 294 293 295 295 295 296 293 293 292
293 291 291 291 291 291 291 292 292 293 295 293 293 288 292 289 293 295 295 295 295 296 296 297 297 300 297 299 294 297 296 296 293 296 303 300 300 299 298 296 295 294 292 294 295 293 290 291 292 292 292 293 293 292
294 295 294 294 292 291 290 290 293 293 293 294 295 290 291 293 294 296 296 296 294 298 298 295 295 298 294 294 295 297 295 297 300 303 302 299 298 297 296 295 292 292 291 292 294 293 291 290 290 291 291 291 292 293
292 293 294 295 294 293 293 293 293 293 293 293 293 293 289 289 285 284 290 289 294 294 293 293 295 296 294 296 299 295 299 301 301 299 296 296 296 294 294 292 291 291 292 292 292 293 291 288 286 289 290 290 289 291
288 293 297 295 293 293 294 294 294 293 293 293 293 288 289 294 295 293 295 294 292 294 293 292 295 300 297 299 302 302 299 299 298 295 295 295 296 295 293 291 290 292 292 293 292 292 292 292 292 291 290 291 289 288
290 294 296 293 295 294 294 294 294 293 295 293 291 287 286 288 291 290 293 294 295 296 297 298 296 297 293 299 298 299 297 296 293 292 294 294 294 293 293 292 291 293 293 292 292 292 292 292 293 293 293 291 289 289
289 291 292 293 293 295 294 294 294 295 294 290 290 287 288 288 288 287 292 293 294 294 296 296 297 297 297 297 296 295 292 292 293 291 292 292 291 291 292 292 293 293 293 292 292 292 292 292 292 293 294 291 288 289
290 290 289 288 290 293 295 294 295 295 295 293 293 292 291 291 289 290 294 293 291 293 296 296 294 295 295 294 294 294 293 292 292 291 291 290 290 291 291 291 292 291 292 292 292 292 292 292 292 292 293 292 290 289
291 292 290 290 291 290 292 292 294 294 294 294 293 294 293 291 291 290 289 291 292 294 294 291 293 293 292 292 292 293 292 291 289 289 288 288 287 288 288 289 290 290 290 291 291 290 291 291 292 292 292 292 292 293
292 291 291 291 291 293 291 293 293 292 293 293 292 292 292 288 288 290 292 296 296 292 292 292 293 292 291 292 291 289 288 287 286 286 285 285 285 285 286 287 286 286 287 288 290 290 290 291 290 290 290 290 291 292
291 291 291 292 292 287 288 291 292 293 293 293 292 293 291 290 291 293 295 293 290 289 288 288 289 290 291 289 287 286 285 285 284 284 284 284 284 284 285 285 284 284 284 285 286 287 289 290 290 289 289 289 290 289
290 290 286 288 288 284 287 286 290 292 290 292 292 290 290 288 290 292 293 289 287 287 287 287 288 288 287 286 286 285 283 283 283 283 283 284 284 283 283 283 283 284 284 285 286 287 287 289 289 288 288 289 290 289
287 286 285 284 285 286 283 282 285 289 285 289 289 285 286 291 290 291 291 288 284 285 285 285 285 285 284 283 283 282 281 281 281 280 280 281 281 281 282 283 283 284 285 285 284 284 285 285 287 287 288 288 290 289
285 283 286 284 282 285 287 284 282 283 286 284 285 288 287 285 284 287 286 284 284 284 282 282 282 281 281 281 281 280 279 279 279 279 279 279 279 280 282 280 280 281 282 283 284 284 284 285 286 286 286 286 287 289
285 285 290 288 289 289 283 284 288 284 281 281 289 286 282 281 287 286 284 282 283 281 280 279 279 279 279 278 277 277 277 277 277 278 277 276 278 278 278 277 278 279 279 281 281 282 282 283 284 285 286 286 286 287
287 288 284 283 283 286 279 279 281 280 288 287 284 279 281 284 283 281 281 279 279 278 277 277 277 277 276 276 276 276 275 276 275 275 274 275 275 276 276 276 276 276 276 277 278 280 280 281 283 284 285 285 286 286
285 287 285 280 276 280 278 280 286 287 286 285 282 283 285 281 279 279 278 277 277 277 277 277 277 276 275 275 276 275 275 275 274 272 272 272 273 274 274 275 275 274 275 274 276 278 280 281 282 283 284 284 285 287
282 285 280 275 277 280 284 283 279 278 282 285 285 281 280 278 277 277 276 276 275 275 275 275 275 276 275 274 274 274 274 273 274 273 273 272 272 273 273 274 274 274 274 273 274 276 279 280 282 282 283 285 285 285
283 279 280 281 279 277 277 275 277 277 271 274 272 276 278 277 277 276 276 275 275 275 275 274 274 274 275 274 274 274 273 272 273 273 273 273 272 272 272 273 274 274 274 274 274 275 277 279 281 282 283 283 282 282
276 278 278 281 281 276 271 272 269 270 270 272 279 278 278 279 277 276 277 276 275 274 274 274 273 274 274 272 272 272 271 271 272 272 273 272 272 272 273 273 275 275 274 274 276 278 279 280 280 282 283 282 281 280
274 273 272 270 273 274 271 272 273 273 269 275 282 279 277 275 276 274 277 275 274 274 274 273 272 272 271 271 271 271 271 272 272 273 272 272 272 272 273 274 274 274 274 275 277 277 277 277 278 281 282 281 280 279
Wind_Speed
9 10 14 16 18 21 22 23 24 24 23 22 20 18 16 12 10 10 8 12 5 2 4 6 7 7 4 3 3 3 5 2 1 3 1 2 3 3 3 6 9 5 4 3 2 3 5 5 5 1 3 3 4 3
10 13 17 20 23 26 28 30 29 28 26 24 22 20 17 15 12 12 6 10 9 3 5 14 19 25 20 20 6 3 6 1 2 1 1 2 3 3 3 3 3 4 2 3 5 3 3 3 11 11 3 4 5 4
9 13 18 22 26 29 32 33 33 31 30 27 25 22 21 17 14 14 9 6 4 3 6 5 8 21 21 27 30 5 3 6 5 5 2 2 4 2 3 6 5 6 11 5 11 4 5 6 10 17 8 7 5 8
10 14 18 22 26 29 31 33 35 34 32 29 27 24 21 18 15 13 11 7 5 3 3 6 9 12 13 13 20 26 21 8 5 2 3 3 3 3 3 7 12 11 9 7 6 14 13 11 14 15 6 7 6 6
16 19 14 16 20 26 30 33 31 32 35 31 28 23 20 17 14 12 12 14 15 5 3 6 18 31 16 23 28 23 21 6 3 3 4 4 3 4 6 8 9 4 5 3 2 15 12 7 6 5 6 7 5 6
23 17 11 12 14 11 11 20 28 26 28 30 26 21 17 17 14 6 2 8 14 17 3 3 5 9 24 19 17 11 11 5 5 4 3 3 6 3 3 4 10 10 12 8 12 13 13 8 4 5 6 10 9 8
27 19 18 15 18 15 10 12 18 17 21 26 25 22 18 16 17 6 3 7 8 2 2 5 4 5 6 3 3 3 4 4 4 3 5 6 4 3 5 13 25 19 20 20 12 7 6 7 9 12 13 13 9 7
27 27 24 24 23 24 25 22 19 20 24 26 23 16 15 13 10 12 21 15 12 4 3 3 4 4 2 1 0 1 2 3 3 3 2 3 2 4 5 9 10 11 11 7 10 7 7 10 9 12 11 7 6 7
29 31 30 27 27 28 29 30 30 29 32 23 16 14 10 3 4 6 7 9 12 8 2 3 2 4 2 1 1 2 2 3 3 5 4 4 2 5 9 7 4 5 5 7 9 9 10 9 11 12 8 8 1 3
25 26 29 30 31 31 32 34 30 26 24 23 16 3 2 5 6 4 0 1 2 3 3 4 3 6 4 4 3 2 2 3 3 5 4 4 5 12 12 4 3 5 9 10 10 13 14 14 12 12 7 6 6 5
19 21 26 31 32 29 28 26 26 24 18 2 2 2 2 4 4 1 2 2 2 3 3 3 5 6 2 3 3 3 2 3 3 4 3 4 2 2 4 4 4 6 7 7 8 8 8 10 10 8 8 8 7 8
14 14 16 18 20 23 24 23 18 3 2 2 3 2 2 0 1 2 2 2 4 3 3 3 4 5 3 2 3 3 3 3 3 3 1 1 2 6 7 8 7 7 10 11 9 9 10 11 11 9 7 7 7 8
9 10 10 12 15 18 18 10 6 8 2 2 2 1 1 3 1 3 3 3 3 3 2 3 5 2 2 3 3 2 2 3 1 3 1 1 4 6 7 6 8 10 11 9 8 9 11 10 12 9 6 8 7 8
6 4 4 5 9 13 15 9 6 8 2 0 2 2 3 3 4 4 3 3 3 4 6 6 4 2 1 2 1 1 3 2 4 2 2 1 3 4 4 5 8 10 8 9 8 6 9 8 7 11 10 9 7 7
3 2 2 4 6 9 11 9 5 5 1 2 2 4 5 4 2 3 5 3 3 4 3 4 3 1 2 1 2 2 5 2 0 2 3 3 4 5 6 6 6 5 6 7 7 5 6 9 7 7 11 10 8 5
6 8 8 5 4 6 6 8 6 3 2 2 3 3 3 2 4 3 2 3 3 3 4 0 2 2 3 2 1 4 2 2 2 1 2 3 3 4 5 5 6 5 8 6 8 10 10 9 6 8 10 8 7 5
7 4 2 2 5 6 7 4 2 2 2 3 4 3 4 3 4 3 2 5 3 3 2 1 2 3 2 2 2 1 2 2 1 2 2 3 4 3 4 5 4 4 4 7 8 12 12 14 13 9 5 6 5 4
2 3 3 1 1 3 4 6 3 3 5 6 3 4 3 3 3 2 2 1 2 2 2 2 3 2 3 2 2 2 2 2 1 3 2 4 7 4 4 5 9 8 6 9 10 11 12 10 7 5 11 6 4 2
8 10 9 7 4 3 3 5 4 4 6 3 3 2 2 3 3 2 2 3 3 3 2 2 4 2 2 1 1 1 1 1 2 3 3 5 9 9 10 13 11 8 9 9 10 8 10 12 10 11 12 7 6 6
10 10 11 10 10 3 3 3 7 3 3 3 1 2 3 3 3 2 3 3 2 1 2 3 3 1 1 1 0 0 1 1 2 4 3 3 9 12 11 11 10 15 12 12 12 12 10 10 12 12 12 11 10 10
3 2 4 12 8 8 3 3 3 4 3 2 2 2 3 0 2 2 2 2 2 3 3 3 2 2 4 4 4 3 1 3 2 2 2 4 9 11 12 14 15 14 11 10 6 8 11 7 12 14 13 14 13 15
3 2 3 8 4 4 3 5 3 4 2 3 3 2 2 2 2 3 2 2 0 4 5 4 2 3 1 2 4 12 11 13 13 10 10 10 6 6 7 11 13 7 11 12 15 12 14 15 13 14 14 15 17 13
2 3 3 2 2 2 6 7 2 2 2 3 4 3 3 3 3 2 2 3 3 4 9 9 16 13 8 14 16 16 17 12 6 8 11 11 11 12 12 14 15 11 7 14 17 16 19 17 16 13 13 15 14 13
2 1 2 1 2 4 3 3 2 3 3 3 3 4 3 3 3 1 3 3 2 5 7 10 10 5 6 10 7 8 14 13 11 11 13 14 7 13 17 17 18 19 19 20 17 15 18 18 13 14 14 12 13 11
4 3 4 3 2 1 3 4 3 2 1 3 2 4 3 2 2 3 3 2 3 5 5 8 8 6 6 5 6 9 15 16 12 8 14 15 16 17 17 19 19 19 16 13 14 15 16 18 16 15 15 15 14 12
1 3 4 3 3 2 2 3 2 3 1 3 4 3 3 2 3 3 2 2 2 4 4 5 5 5 6 10 7 8 15 18 16 10 14 17 16 14 8 7 8 14 21 21 17 18 18 17 17 17 16 17 17 17
1 3 1 1 0 1 3 2 2 0 2 2 2 3 3 2 2 2 2 4 3 10 12 13 12 10 8 11 12 15 20 19 16 14 19 20 15 15 13 13 12 20 28 25 21 21 20 20 20 19 17 18 17 16
3 1 2 3 1 0 3 2 1 2 2 3 3 3 1 1 1 2 3 10 12 12 12 14 15 13 13 15 15 19 22 19 17 19 22 11 13 17 19 24 23 26 28 25 24 25 24 22 22 20 17 17 18 18
1 1 3 3 3 2 3 3 1 1 2 2 2 2 1 3 4 4 9 12 14 15 14 13 13 14 12 13 12 14 22 17 16 14 14 11 12 19 25 27 30 30 32 27 25 24 26 26 25 23 22 22 20 15
2 1 2 1 3 3 3 3 3 3 2 4 3 4 3 2 11 16 16 17 15 13 15 16 17 14 15 17 14 12 16 19 12 15 9 11 14 28 28 27 29 31 31 27 28 30 27 24 23 20 20 15 11 7
0 3 2 1 3 3 3 3 5 3 1 2 1 4 4 3 5 10 9 10 15 16 16 16 17 18 14 17 14 14 12 21 21 24 24 26 26 26 26 27 28 29 30 31 30 29 26 22 18 17 17 9 8 9
1 3 3 1 3 4 4 3 2 1 3 3 3 3 4 3 2 0 3 13 16 15 16 17 17 19 19 25 25 21 26 26 24 26 24 26 27 26 27 28 26 24 29 30 25 22 17 17 17 17 6 10 10 10
2 2 3 2 4 5 4 3 3 4 3 2 3 2 2 2 2 1 3 9 16 10 15 22 23 22 25 26 25 25 22 21 21 20 24 24 23 23 24 22 20 23 24 22 19 14 14 13 13 6 5 9 11 12
Wind_Direction
218 227 232 232 231 230 229 228 225 220 220 219 218 217 216 210 201 197 233 238 222 212 260 254 281 268 273 198 213 276 347 306 264 25 302 324 283 293 295 276 301 299 316 275 258 230 279 243 352 98 207 158 167 160
262 261 259 254 248 244 239 235 231 229 227 225 224 224 220 215 204 199 228 229 258 221 243 290 274 261 252 236 247 209 221 290 287 327 311 279 309 294 257 268 304 314 2 281 277 298 339 2 299 335 249 167 207 214
277 268 263 257 253 251 247 240 234 228 225 223 222 223 217 211 204 203 217 241 306 356 290 248 242 277 271 254 246 241 238 201 220 217 217 247 261 294 303 285 265 292 308 260 325 9 310 13 321 288 264 227 238 211
327 305 290 279 269 259 251 244 237 230 221 220 218 217 212 207 199 202 215 231 227 267 272 278 287 260 261 251 251 227 241 240 244 176 249 245 260 221 234 261 288 285 288 266 290 281 292 232 240 255 218 219 195 195
346 334 321 308 292 272 256 242 231 225 219 211 211 212 210 212 200 203 221 238 237 200 236 285 302 289 280 260 256 238 220 204 189 196 225 233 226 254 258 267 264 223 246 259 293 301 283 273 291 270 232 232 207 213
5 0 0 7 356 337 248 224 213 210 209 204 195 198 201 204 193 173 355 237 242 230 251 273 267 281 282 263 254 228 206 184 192 180 221 213 226 224 262 261 265 268 265 229 291 288 281 280 301 297 288 268 237 217
22 35 36 34 36 52 85 144 171 174 185 187 175 175 200 195 188 171 185 153 155 231 298 293 284 265 270 255 1 339 182 186 165 195 230 237 241 260 272 268 278 290 295 294 296 308 306 331 303 298 292 281 247 222
39 51 57 69 76 84 96 110 126 142 152 153 150 178 187 191 203 246 246 241 265 240 236 260 268 318 228 256 251 193 292 173 185 203 234 207 218 208 252 248 269 310 320 16 338 316 297 301 298 300 277 269 219 204
53 58 67 75 85 93 104 113 122 131 127 137 149 139 124 152 197 238 260 249 231 213 232 250 244 282 348 281 235 259 237 193 183 207 209 169 229 228 247 280 351 343 320 324 349 349 339 338 340 345 339 4 359 287
64 70 78 84 88 95 103 109 113 121 126 128 127 125 349 209 247 219 308 136 205 212 233 241 218 257 329 308 304 336 261 225 213 205 161 204 252 266 304 20 338 318 353 4 0 357 347 349 357 355 12 6 13 1
76 82 92 98 101 106 112 117 120 122 124 111 114 187 239 184 188 178 225 187 220 249 228 245 222 236 256 203 212 221 249 214 266 127 210 168 213 19 42 38 346 348 350 343 346 349 343 346 342 349 359 10 7 4
81 92 100 108 112 116 117 118 116 59 2 250 141 108 138 198 241 238 246 244 211 253 210 216 239 204 241 188 212 210 258 15 276 158 57 27 344 31 25 14 2 16 4 355 3 355 350 350 350 353 4 2 5 1
83 90 107 122 130 134 132 116 49 15 343 179 171 157 126 294 229 244 244 224 249 267 283 291 301 255 195 194 231 270 14 252 346 35 164 350 359 12 358 359 356 355 350 344 354 1 2 351 351 358 4 12 13 22
67 87 123 149 166 173 178 201 312 344 344 139 191 303 192 234 223 212 241 250 247 245 266 282 276 274 275 214 250 36 253 33 353 -0 53 218 305 327 352 355 341 343 353 332 341 358 353 344 333 345 1 4 24 34
300 301 290 274 220 221 227 243 298 341 11 272 225 239 218 228 250 247 242 267 266 267 281 298 286 221 281 340 219 318 354 282 284 49 4 1 7 7 354 350 339 356 350 332 333 340 339 338 329 332 351 355 6 34
304 287 265 250 263 242 235 232 285 298 274 254 242 248 271 42 292 328 281 268 284 310 298 154 256 320 265 201 246 227 256 10 61 337 284 316 333 327 320 329 339 316 356 346 339 336 328 330 320 321 332 347 352 336
303 240 306 264 271 246 215 204 232 243 248 241 244 214 221 244 254 233 239 306 284 308 283 340 301 256 327 254 234 288 58 145 324 299 282 315 290 265 307 311 297 303 315 328 337 345 334 341 337 324 313 311 327 317
236 268 240 317 71 157 197 207 232 235 242 241 237 248 218 211 231 261 216 209 327 315 310 275 325 288 251 262 3 35 40 2 2 330 342 13 1 358 330 311 307 318 328 326 332 330 335 333 334 319 309 283 279 276
266 246 240 239 226 272 229 205 218 256 238 227 241 238 199 238 241 199 198 255 227 217 259 262 252 240 271 42 10 283 53 59 333 315 309 344 342 337 335 333 320 323 319 310 320 319 320 327 312 322 320 259 238 209
300 277 243 234 202 219 256 223 195 239 265 242 258 212 204 209 203 211 194 214 161 176 247 230 232 172 288 282 235 15 331 328 10 339 335 346 349 354 340 335 331 326 310 315 328 330 326 325 331 331 321 312 237 223
341 84 147 168 192 225 260 262 245 216 261 263 268 184 249 47 240 218 249 133 131 213 241 224 249 152 223 242 243 255 74 41 25 14 323 333 339 335 338 340 350 350 341 329 318 302 312 313 319 321 322 320 288 260
180 305 198 195 230 222 234 242 245 282 286 255 300 216 241 274 254 235 138 172 189 6 343 310 227 195 231 92 73 56 51 51 39 22 6 357 347 345 342 347 351 338 333 330 328 325 309 312 319 314 309 311 305 258
277 193 218 207 206 5 260 344 330 256 263 277 338 313 322 341 268 148 86 48 70 6 349 23 16 24 48 70 65 56 39 27 11 354 343 330 319 325 322 328 323 311 312 317 321 314 317 304 315 309 308 310 293 239
203 144 110 211 146 253 342 318 282 290 332 352 340 301 281 252 315 344 90 65 20 359 15 15 17 21 36 38 38 28 16 2 354 350 348 343 340 334 328 317 312 306 301 304 305 323 324 312 316 319 310 307 291 244
78 290 105 287 286 12 339 320 310 1 317 311 293 282 286 339 330 8 67 85 12 10 16 15 18 26 18 10 12 13 4 3 354 338 342 342 332 326 323 324 321 322 350 348 340 330 324 320 317 315 313 311 294 262
143 247 149 204 284 110 268 326 281 242 235 257 257 292 -0 40 38 51 63 5 24 14 25 24 18 6 6 9 1 355 347 344 337 325 338 337 331 330 328 348 335 330 340 333 328 324 322 319 314 307 305 307 308 292
253 271 217 347 90 326 337 306 289 125 256 234 325 328 23 17 57 89 110 19 20 40 40 32 24 18 9 353 348 343 348 349 342 328 329 335 343 346 1 342 325 320 328 328 328 326 319 313 311 302 299 301 300 297
216 83 142 268 -0 233 184 294 256 245 26 356 1 345 204 163 79 60 50 48 58 51 43 36 30 17 359 349 344 349 351 358 359 350 348 343 337 341 334 339 334 328 331 328 320 320 316 311 308 305 300 299 299 300
64 332 89 337 332 340 210 189 304 89 225 175 195 254 61 54 7 73 69 61 48 35 17 357 353 1 354 351 352 358 7 359 3 354 344 332 326 327 331 325 332 333 334 326 319 315 314 313 306 302 297 291 290 284
277 131 92 61 140 245 238 179 222 241 237 214 170 97 77 63 64 81 69 53 43 25 6 353 342 334 344 342 332 335 359 357 330 345 319 317 312 314 318 318 321 326 329 322 316 319 320 316 316 312 313 282 220 194
234 68 60 178 224 246 227 254 297 271 328 240 314 116 138 145 145 76 71 48 31 12 359 355 347 342 324 342 335 333 329 331 323 322 323 318 314 311 314 315 316 321 324 323 319 312 308 303 305 301 301 230 177 162
53 176 140 248 277 292 6 25 289 318 318 32 52 90 147 141 107 175 10 23 18 6 359 353 345 333 337 329 325 320 325 322 324 325 323 321 323 325 322 322 327 325 326 328 329 329 334 332 321 308 254 172 161 156
12 55 51 53 357 355 308 62 330 313 11 78 99 30 60 89 118 246 1 19 16 7 0 349 338 335 335 333 331 328 332 332 335 332 329 327 328 329 331 335 331 327 330 334 341 344 348 350 353 9 135 142 142 143